Regional Weather Roundup
Issued by NWS

Home | Current Version | Previous Version | Text Only | Print | Product List | Glossary Off
Versions: 1 2 3 4 5 6 7 8 9 10 11 12 13 14 15 16 17 18 19 20 21 22 23 24 25 26 27

000
ASUS43 KDMX 231007
RWRIA

WEATHER ROUNDUP FOR IOWA
NATIONAL WEATHER SERVICE DES MOINES IA
500 AM CDT THU OCT 23 2014

NOTE: "FAIR" INDICATES FEW OR NO CLOUDS BELOW 12,000 FEET WITH NO
SIGNIFICANT WEATHER AND/OR OBSTRUCTIONS TO VISIBILITY.

* - THESE STATIONS ARE NOT NWS STATIONS...THUS NOT UNDER NWS
QUALITY CONTROL.  THEY ALSO DO NOT REPORT WEATHER SUCH
AS PRECIPITATION OR FOG.

IAZ001>003-012>014-020>022-031>034-043>046-231100-
   NORTHWEST IOWA

CITY           SKY/WX    TMP DP  RH WIND       PRES   REMARKS
CARROLL *      CLOUDY    55  55 100 SW8       30.02S
CHEROKEE *     CLOUDY    57  57 100 N5        30.01S FOG
DENISON *      CLOUDY    59  59 100 S8G14     30.00S FOG
LE MARS *      FOG       52  52 100 CALM      30.03R VSB 0
ORANGE CITY *  FOG       54  52  94 W3        30.02S VSB 0
SHELDON *      FOG       50  50 100 NW3       30.01R VSB 0
SIOUX CITY     FOG       54  54 100 NW7       30.02S VSB 3/4
SPENCER        CLOUDY    56  54  93 NW7       30.01S
STORM LAKE *   CLOUDY    57  57 100 W6        30.02S FOG
$$

IAZ055>058-069>071-079>083-090>094-231100-
   SOUTHWEST IOWA

CITY           SKY/WX    TMP DP  RH WIND       PRES   REMARKS
ATLANTIC *     CLOUDY    57  55  94 S7        30.03S
AUDUBON *      RAIN      57  52  82 S8        30.04S
CLARINDA *     CLOUDY    57  57 100 S9        30.06F
COUNCIL BLFS * CLOUDY    61  61 100 S8        30.02S FOG
CRESTON *      CLOUDY    54  54 100 S13       30.05F
HARLAN  *      CLOUDY    57  57 100 S6        30.06S FOG
LAMONI         CLOUDY    53  47  79 S9        30.08S
RED OAK *      CLOUDY    59  59 100 S8        30.04S
SHENANDOAH *   CLOUDY    59  59 100 S8G14     30.04S
$$

IAZ047>049-059>061-072>074-084-231100-
   CENTRAL IOWA

CITY           SKY/WX    TMP DP  RH WIND       PRES   REMARKS
AMES           LGT RAIN  51  48  89 S5        30.04F
ANKENY *       CLOUDY    52  50  93 S6        30.04F
CHARITON *     MOCLDY    52  48  87 S5        30.07F
DES MOINES     CLOUDY    53  49  86 S12       30.04F
GRINNELL*      CLOUDY    48  45  87 SE8       30.09F
KNOXVILLE *    MOCLDY    52  45  76 SE10      30.06F
MARSHALLTOWN   LGT RAIN  48  45  89 SE7       30.06F
PELLA *        LGT RAIN  52  45  76 SE5       30.09F
PERRY *        LGT RAIN  54  54 100 S7        30.02F
$$

IAZ004>006-015-016-023>025-035-036-231100-
   NORTH CENTRAL IOWA

CITY           SKY/WX    TMP DP  RH WIND       PRES   REMARKS
ALGONA *       CLOUDY    54  54 100 S8        30.02S
CLARION *      LGT RAIN  52  52 100 S10G17    30.02S
ESTHERVILLE    CLOUDY    54  54 100 SW5       30.00S FOG
FORT DODGE *   CLOUDY    54  50  87 S9        30.03R
MASON CITY     CLOUDY    50  46  86 SE9       30.04F
FOREST CITY *  HVY RAIN  50  50 100 CALM      30.04R
IOWA FALLS *   CLOUDY    48  46  93 SE8       30.05S
$$

IAZ007>011-017>019-026>030-037>042-050>054-066-231100-
   NORTHEAST IOWA

CITY           SKY/WX    TMP DP  RH WIND       PRES   REMARKS
CEDAR RAPIDS   MOCLDY    47  41  80 S7        30.12S
CHARLES CITY * CLOUDY    48  46  93 SE8       30.07S
CLINTON *      MOCLDY    39  34  81 SE7       30.19S WCI  34
DECORAH *      CLOUDY    48  43  81 VRB7      30.08S
DUBUQUE        CLOUDY    44  38  79 S8        30.15S
MONTICELLO *   CLOUDY    46  39  76 SE6       30.14S
OELWEIN *      CLOUDY    50  43  76 S12       30.11S
WATERLOO       LGT RAIN  48  45  89 SE12      30.08F
$$

IAZ064-065-067-068-078-231100-
   EAST CENTRAL IOWA

CITY           SKY/WX    TMP DP  RH WIND       PRES   REMARKS
DAVENPORT      MOCLDY    42  35  76 S9        30.16S
IOWA CITY      MOCLDY    45  40  82 SE5       30.14F
MT. PLEASANT * CLEAR     45  39  81 SE7       30.13F
MUSCATINE *    MOCLDY    37  36  93 CALM      30.15S
QUAD CITIES    MOCLDY    40  35  83 SE3       30.16S
$$

IAZ062-063-075>077-085>089-095>099-231100-
   SOUTHEAST IOWA

CITY           SKY/WX    TMP DP  RH WIND       PRES   REMARKS
BURLINGTON     CLEAR     44  40  85 S8        30.15S
FAIRFIELD *    PTCLDY    48  41  76 S8G14     30.13R
FORT MADISON * CLEAR     48  43  81 S9        30.15S
KEOKUK *       CLEAR     45  41  87 SE6       30.14S
OSKALOOSA *    CLOUDY    50  43  76 S7        30.10F
CENTERVILLE *  MOCLDY    50  45  81 CALM      30.12F
OTTUMWA        CLOUDY    51  41  68 S8        30.10F
WASHINGTON *   CLEAR     46  43  87 S8        30.12S
$$

ABBREVIATIONS USED IN REMARKS
   TC - TEMPERATURES IN CELSIUS
  WCI - WIND CHILL INDEX
   HX - HEAT INDEX
  VSB - VISIBILITY
$$




USA.gov is the U.S. government's official web portal to all federal, state and local government web resources and services.